SL-12 R/B(AUX MOTOR), 33473

Orbit data source: Space-Track

SL-12 R/B(AUX MOTOR), 33473 is space debris in HEO originally from a launch on Thu, 25 Dec 2008 UTC launched from the Tyuratam Missile And Space Complex (TTMTR). Debris objects in space refer to the collection of defunct objects orbiting the Earth. Examples of debris include non-operational satellites, rocket bodies, and fragments generated from explosions, collisions, or faulty payload assembly.

Loading next visibility...
Identifier
33473, 2008-067H
Orbit
HEO
Country
Flag of CISCIS
Related business
Manufacturer
RKKE
Mission
Spacecraft
Bus & Motor
SOZ, Unknown motor
Mass
56 kg wet, 56 kg dry
Launch date (UTC)
2008-12-25 (17 years ago)
Launch vehicle
Unknown
Launch site
Tyuratam Missile And Space Complex (TTMTR)
Object type
Payload
Rocket body
Debris
Shape & HBR
Cyl, 0.6 m
Radar Cross Section
0.660 m², Medium (>0.1 m² and < 1m²)

Expand to show TLE details & history
Last TLE update: 4 days ago

TLE from 4 days ago
0 SL-12 R/B(AUX MOTOR)
1 33473U 08067H   26169.19083417  .00000058  00000-0  24838-4 0  9990
2 33473  65.3234 138.7840 5570568 257.6398  37.7469  4.26224743156217
Epoch: 2026-06-18T04:34Z
TLE epoch observation values (Epoch: 2026-06-18T04:34:48.072Z)
Latitude
-0.00005°
Longitude
163.63751°
Altitude
6,221.094 km
Speed
6.203 km/s
True Right ascension
09h 15m 06s
True Declination
0° 00' 00"
Sunlit
Object was in daylight at epoch
Visualization orbit readout
Latitude
Unknown
Longitude
Unknown
Altitude
Unknown
Speed
Unknown
Apparent Right ascension
Unknown
Apparent Declination
Unknown
Sunlit
N/A
Visualization observer readout
Local Sidereal Time
00:50:50
Azimuth
Unknown
Elevation
Unknown
Doppler factor
Unknown
Orbital elements
Apogee altitude
18,639.71 km
Perigee altitude
738.807 km
Semi-major axis
16,067.396 km
Eccentricity
0.55706
Inclination
65.3234°
RAAN
138.784°
Arg. of periapsis
257.6398°
True anomaly
102.44631°
Mean anomaly
37.7469°
Eccentric anomaly
67.16174°
Mean motion
1.06568 °/min
Orbital period
337.81 mins
BSTAR
0.000024838
Loading maneuver chart data...
Computing Atmospheric mass density...
Loading historical data...
Loading historical data...
Loading historical data...
Loading historical data...
Loading historical data...
Loading historical data...
Loading historical data...

Documentation

Showing up to 5 results
|